Year,Month,Day,Hour,Minute,Value (Times are PST for temperature in C)
2004,08,15,00,00,18.10
2004,08,15,00,01,18.10
2004,08,15,00,02,18.10
2004,08,15,00,03,18.10
2004,08,15,00,04,18.10
2004,08,15,00,05,18.10
2004,08,15,00,06,18.20
2004,08,15,00,07,18.20
2004,08,15,00,08,18.20
2004,08,15,00,09,18.20
2004,08,15,00,10,18.20
2004,08,15,00,11,18.20
2004,08,15,00,12,18.30
2004,08,15,00,13,18.30
2004,08,15,00,14,18.40
2004,08,15,00,15,18.50
2004,08,15,00,16,18.50
2004,08,15,00,17,18.50
2004,08,15,00,18,18.50
2004,08,15,00,19,18.50
2004,08,15,00,20,18.50
2004,08,15,00,21,18.50
2004,08,15,00,22,18.50
2004,08,15,00,23,18.60
2004,08,15,00,24,18.70
2004,08,15,00,25,18.70
2004,08,15,00,26,18.70
2004,08,15,00,27,18.70
2004,08,15,00,28,18.60
2004,08,15,00,29,18.50
2004,08,15,00,30,18.40
2004,08,15,00,31,18.20
2004,08,15,00,32,18.00
2004,08,15,00,33,17.90
2004,08,15,00,34,17.80
2004,08,15,00,35,17.70
2004,08,15,00,36,17.60
2004,08,15,00,37,17.60
2004,08,15,00,38,17.60
2004,08,15,00,39,17.70
2004,08,15,00,40,17.70
2004,08,15,00,41,17.70
2004,08,15,00,42,17.80
2004,08,15,00,43,17.80
2004,08,15,00,44,17.90
2004,08,15,00,45,17.90
2004,08,15,00,46,18.00
2004,08,15,00,47,18.10
2004,08,15,00,48,18.20
2004,08,15,00,49,18.20
2004,08,15,00,50,18.10
2004,08,15,00,51,18.00
2004,08,15,00,52,17.90
2004,08,15,00,53,17.80
2004,08,15,00,54,17.70
2004,08,15,00,55,17.70
2004,08,15,00,56,17.60
2004,08,15,00,57,17.60
2004,08,15,00,58,17.60
2004,08,15,00,59,17.60
2004,08,15,01,00,17.60
2004,08,15,01,01,17.60
2004,08,15,01,02,17.60
2004,08,15,01,03,17.60
2004,08,15,01,04,17.60
2004,08,15,01,05,17.60
2004,08,15,01,06,17.50
2004,08,15,01,07,17.50
2004,08,15,01,08,17.50
2004,08,15,01,09,17.50
2004,08,15,01,10,17.50
2004,08,15,01,11,17.50
2004,08,15,01,12,17.50
2004,08,15,01,13,17.60
2004,08,15,01,14,17.60
2004,08,15,01,15,17.70
2004,08,15,01,16,17.60
2004,08,15,01,17,17.70
2004,08,15,01,18,17.80
2004,08,15,01,19,17.80
2004,08,15,01,20,17.90
2004,08,15,01,21,17.90
2004,08,15,01,22,17.90
2004,08,15,01,23,18.00
2004,08,15,01,24,18.10
2004,08,15,01,25,18.00
2004,08,15,01,26,17.90
2004,08,15,01,27,17.90
2004,08,15,01,28,18.00
2004,08,15,01,29,18.10
2004,08,15,01,30,18.10
2004,08,15,01,31,18.20
2004,08,15,01,32,18.30
2004,08,15,01,33,18.30
2004,08,15,01,34,18.30
2004,08,15,01,35,18.20
2004,08,15,01,36,18.20
2004,08,15,01,37,18.20
2004,08,15,01,38,18.10
2004,08,15,01,39,17.90
2004,08,15,01,40,17.90
2004,08,15,01,41,17.80
2004,08,15,01,42,17.80
2004,08,15,01,43,17.80
2004,08,15,01,44,17.70
2004,08,15,01,45,17.70
2004,08,15,01,46,17.70
2004,08,15,01,47,17.70
2004,08,15,01,48,17.70
2004,08,15,01,49,17.70
2004,08,15,01,50,17.70
2004,08,15,01,51,17.70
2004,08,15,01,52,17.70
2004,08,15,01,53,17.70
2004,08,15,01,54,17.70
2004,08,15,01,55,17.70
2004,08,15,01,56,17.70
2004,08,15,01,57,17.60
2004,08,15,01,58,17.60
2004,08,15,01,59,17.60
2004,08,15,02,00,17.60
2004,08,15,02,01,17.60
2004,08,15,02,02,17.60
2004,08,15,02,03,17.60
2004,08,15,02,04,17.50
2004,08,15,02,05,17.50
2004,08,15,02,06,17.50
2004,08,15,02,07,17.50
2004,08,15,02,08,17.50
2004,08,15,02,09,17.50
2004,08,15,02,10,17.50
2004,08,15,02,11,17.50
2004,08,15,02,12,17.60
2004,08,15,02,13,17.80
2004,08,15,02,14,17.90
2004,08,15,02,15,17.90
2004,08,15,02,16,17.90
2004,08,15,02,17,18.00
2004,08,15,02,18,18.20
2004,08,15,02,19,18.30
2004,08,15,02,20,18.40
2004,08,15,02,21,18.50
2004,08,15,02,22,18.60
2004,08,15,02,23,18.70
2004,08,15,02,24,18.70
2004,08,15,02,25,18.70
2004,08,15,02,26,18.70
2004,08,15,02,27,18.70
2004,08,15,02,28,18.70
2004,08,15,02,29,18.70
2004,08,15,02,30,18.70
2004,08,15,02,31,18.80
2004,08,15,02,32,18.80
2004,08,15,02,33,18.80
2004,08,15,02,34,18.80
2004,08,15,02,35,18.80
2004,08,15,02,36,18.80
2004,08,15,02,37,18.80
2004,08,15,02,38,18.80
2004,08,15,02,39,18.80
2004,08,15,02,40,18.80
2004,08,15,02,41,18.80
2004,08,15,02,42,18.80
2004,08,15,02,43,18.90
2004,08,15,02,44,19.00
2004,08,15,02,45,19.10
2004,08,15,02,46,19.10
2004,08,15,02,47,19.10
2004,08,15,02,48,19.20
2004,08,15,02,49,19.20
2004,08,15,02,50,19.20
2004,08,15,02,51,19.20
2004,08,15,02,52,19.20
2004,08,15,02,53,19.20
2004,08,15,02,54,19.20
2004,08,15,02,55,19.20
2004,08,15,02,56,19.20
2004,08,15,02,57,19.30
2004,08,15,02,58,19.30
2004,08,15,02,59,19.30
2004,08,15,03,00,19.40
2004,08,15,03,01,19.40
2004,08,15,03,02,19.40
2004,08,15,03,03,19.40
2004,08,15,03,04,19.30
2004,08,15,03,05,19.20
2004,08,15,03,06,19.00
2004,08,15,03,07,18.90
2004,08,15,03,08,18.60
2004,08,15,03,09,18.40
2004,08,15,03,10,18.20
2004,08,15,03,11,18.00
2004,08,15,03,12,17.80
2004,08,15,03,13,17.60
2004,08,15,03,14,17.40
2004,08,15,03,15,17.40
2004,08,15,03,16,17.40
2004,08,15,03,17,17.40
2004,08,15,03,18,17.30
2004,08,15,03,19,17.30
2004,08,15,03,20,17.40
2004,08,15,03,21,17.40
2004,08,15,03,22,17.40
2004,08,15,03,23,17.40
2004,08,15,03,24,17.50
2004,08,15,03,25,17.50
2004,08,15,03,26,17.50
2004,08,15,03,27,17.60
2004,08,15,03,28,17.70
2004,08,15,03,29,17.80
2004,08,15,03,30,17.90
2004,08,15,03,31,17.90
2004,08,15,03,32,18.10
2004,08,15,03,33,18.30
2004,08,15,03,34,18.50
2004,08,15,03,35,18.60
2004,08,15,03,36,18.70
2004,08,15,03,37,18.70
2004,08,15,03,38,18.80
2004,08,15,03,39,18.80
2004,08,15,03,40,18.80
2004,08,15,03,41,18.80
2004,08,15,03,42,18.90
2004,08,15,03,43,18.90
2004,08,15,03,44,18.90
2004,08,15,03,45,18.90
2004,08,15,03,46,18.90
2004,08,15,03,47,19.10
2004,08,15,03,48,19.10
2004,08,15,03,49,19.10
2004,08,15,03,50,19.10
2004,08,15,03,51,19.10
2004,08,15,03,52,19.20
2004,08,15,03,53,19.20
2004,08,15,03,54,19.30
2004,08,15,03,55,19.30
2004,08,15,03,56,19.30
2004,08,15,03,57,19.40
2004,08,15,03,58,19.40
2004,08,15,03,59,19.30
2004,08,15,04,00,19.30
2004,08,15,04,01,19.20
2004,08,15,04,02,19.20
2004,08,15,04,03,19.20
2004,08,15,04,04,19.30
2004,08,15,04,05,19.30
2004,08,15,04,06,19.30
2004,08,15,04,07,19.30
2004,08,15,04,08,19.30
2004,08,15,04,09,19.30
2004,08,15,04,10,19.30
2004,08,15,04,11,19.30
2004,08,15,04,12,19.30
2004,08,15,04,13,19.40
2004,08,15,04,14,19.40
2004,08,15,04,15,19.40
2004,08,15,04,16,19.40
2004,08,15,04,17,19.30
2004,08,15,04,18,19.30
2004,08,15,04,19,19.20
2004,08,15,04,20,19.20
2004,08,15,04,21,19.20
2004,08,15,04,22,19.20
2004,08,15,04,23,19.30
2004,08,15,04,24,19.30
2004,08,15,04,25,19.30
2004,08,15,04,26,19.30
2004,08,15,04,27,19.30
2004,08,15,04,28,19.30
2004,08,15,04,29,19.30
2004,08,15,04,30,19.30
2004,08,15,04,31,19.30
2004,08,15,04,32,19.40
2004,08,15,04,33,19.30
2004,08,15,04,34,19.20
2004,08,15,04,35,19.20
2004,08,15,04,36,19.20
2004,08,15,04,37,19.20
2004,08,15,04,38,19.20
2004,08,15,04,39,19.10
2004,08,15,04,40,19.10
2004,08,15,04,41,19.10
2004,08,15,04,42,19.10
2004,08,15,04,43,19.10
2004,08,15,04,44,19.10
2004,08,15,04,45,19.10
2004,08,15,04,46,19.20
2004,08,15,04,47,19.20
2004,08,15,04,48,19.20
2004,08,15,04,49,19.10
2004,08,15,04,50,19.10
2004,08,15,04,51,19.10
2004,08,15,04,52,19.10
2004,08,15,04,53,19.10
2004,08,15,04,54,19.10
2004,08,15,04,55,19.10
2004,08,15,04,56,19.10
2004,08,15,04,57,19.10
2004,08,15,04,58,19.10
2004,08,15,04,59,19.10
2004,08,15,05,00,19.10
2004,08,15,05,01,19.10
2004,08,15,05,02,19.10
2004,08,15,05,03,19.10
2004,08,15,05,04,19.10
2004,08,15,05,05,19.00
2004,08,15,05,06,18.90
2004,08,15,05,07,18.90
2004,08,15,05,08,18.90
2004,08,15,05,09,18.90
2004,08,15,05,10,18.90
2004,08,15,05,11,18.90
2004,08,15,05,12,18.90
2004,08,15,05,13,18.90
2004,08,15,05,14,18.90
2004,08,15,05,15,18.90
2004,08,15,05,16,18.90
2004,08,15,05,17,18.90
2004,08,15,05,18,18.90
2004,08,15,05,19,18.80
2004,08,15,05,20,18.80
2004,08,15,05,21,18.70
2004,08,15,05,22,18.70
2004,08,15,05,23,18.70
2004,08,15,05,24,18.70
2004,08,15,05,25,18.70
2004,08,15,05,26,18.70
2004,08,15,05,27,18.70
2004,08,15,05,28,18.70
2004,08,15,05,29,18.70
2004,08,15,05,30,18.60
2004,08,15,05,31,18.60
2004,08,15,05,32,18.70
2004,08,15,05,33,18.60
2004,08,15,05,34,18.60
2004,08,15,05,35,18.50
2004,08,15,05,36,18.50
2004,08,15,05,37,18.40
2004,08,15,05,38,18.40
2004,08,15,05,39,18.30
2004,08,15,05,40,18.30
2004,08,15,05,41,18.30
2004,08,15,05,42,18.20
2004,08,15,05,43,18.20
2004,08,15,05,44,18.20
2004,08,15,05,45,18.10
2004,08,15,05,46,18.10
2004,08,15,05,47,18.10
2004,08,15,05,48,18.10
2004,08,15,05,49,18.10
2004,08,15,05,50,18.00
2004,08,15,05,51,18.00
2004,08,15,05,52,17.90
2004,08,15,05,53,17.90
2004,08,15,05,54,17.90
2004,08,15,05,55,17.90
2004,08,15,05,56,17.80
2004,08,15,05,57,17.90
2004,08,15,05,58,17.80
2004,08,15,05,59,17.80
2004,08,15,06,00,17.80
2004,08,15,06,01,17.80
2004,08,15,06,02,17.70
2004,08,15,06,03,17.80
2004,08,15,06,04,17.70
2004,08,15,06,05,17.70
2004,08,15,06,06,17.60
2004,08,15,06,07,17.60
2004,08,15,06,08,17.60
2004,08,15,06,09,17.60
2004,08,15,06,10,17.60
2004,08,15,06,11,17.50
2004,08,15,06,12,17.50
2004,08,15,06,13,17.50
2004,08,15,06,14,17.50
2004,08,15,06,15,17.50
2004,08,15,06,16,17.50
2004,08,15,06,17,17.50
2004,08,15,06,18,17.50
2004,08,15,06,19,17.50
2004,08,15,06,20,17.50
2004,08,15,06,21,17.50
2004,08,15,06,22,17.40
2004,08,15,06,23,17.40
2004,08,15,06,24,17.30
2004,08,15,06,25,17.30
2004,08,15,06,26,17.30
2004,08,15,06,27,17.30
2004,08,15,06,28,17.20
2004,08,15,06,29,17.20
2004,08,15,06,30,17.10
2004,08,15,06,31,17.10
2004,08,15,06,32,17.20
2004,08,15,06,33,17.20
2004,08,15,06,34,17.20
2004,08,15,06,35,17.20
2004,08,15,06,36,17.10
2004,08,15,06,37,17.00
2004,08,15,06,38,17.10
2004,08,15,06,39,17.10
2004,08,15,06,40,17.10
2004,08,15,06,41,17.10
2004,08,15,06,42,17.00
2004,08,15,06,43,17.00
2004,08,15,06,44,17.00
2004,08,15,06,45,17.00
2004,08,15,06,46,17.00
2004,08,15,06,47,16.90
2004,08,15,06,48,16.90
2004,08,15,06,49,16.90
2004,08,15,06,50,16.90
2004,08,15,06,51,16.90
2004,08,15,06,52,16.90
2004,08,15,06,53,17.00
2004,08,15,06,54,17.00
2004,08,15,06,55,17.00
2004,08,15,06,56,17.00
2004,08,15,06,57,17.00
2004,08,15,06,58,17.00
2004,08,15,06,59,17.00
2004,08,15,07,00,17.00
2004,08,15,07,01,17.00
2004,08,15,07,02,16.90
2004,08,15,07,03,16.90
2004,08,15,07,04,17.00
2004,08,15,07,05,17.00
2004,08,15,07,06,17.00
2004,08,15,07,07,17.00
2004,08,15,07,08,17.00
2004,08,15,07,09,17.00
2004,08,15,07,10,17.00
2004,08,15,07,11,17.00
2004,08,15,07,12,17.00
2004,08,15,07,13,17.00
2004,08,15,07,14,16.90
2004,08,15,07,15,16.90
2004,08,15,07,16,16.90
2004,08,15,07,17,17.00
2004,08,15,07,18,17.10
2004,08,15,07,19,17.20
2004,08,15,07,20,17.20
2004,08,15,07,21,17.30
2004,08,15,07,22,17.20
2004,08,15,07,23,17.30
2004,08,15,07,24,17.30
2004,08,15,07,25,17.20
2004,08,15,07,26,17.10
2004,08,15,07,27,17.10
2004,08,15,07,28,17.10
2004,08,15,07,29,17.10
2004,08,15,07,30,17.10
2004,08,15,07,31,17.10
2004,08,15,07,32,17.20
2004,08,15,07,33,17.20
2004,08,15,07,34,17.30
2004,08,15,07,35,17.30
2004,08,15,07,36,17.30
2004,08,15,07,37,17.20
2004,08,15,07,38,17.20
2004,08,15,07,39,17.10
2004,08,15,07,40,17.10
2004,08,15,07,41,17.20
2004,08,15,07,42,17.20
2004,08,15,07,43,17.20
2004,08,15,07,44,17.20
2004,08,15,07,45,17.30
2004,08,15,07,46,17.30
2004,08,15,07,47,17.30
2004,08,15,07,48,17.30
2004,08,15,07,49,17.30
2004,08,15,07,50,17.30
2004,08,15,07,51,17.30
2004,08,15,07,52,17.30
2004,08,15,07,53,17.30
2004,08,15,07,54,17.30
2004,08,15,07,55,17.30
2004,08,15,07,56,17.30
2004,08,15,07,57,17.50
2004,08,15,07,58,17.60
2004,08,15,07,59,17.60
2004,08,15,08,00,17.70
2004,08,15,08,01,17.60
2004,08,15,08,02,17.60
2004,08,15,08,03,17.60
2004,08,15,08,04,17.60
2004,08,15,08,05,17.60
2004,08,15,08,06,17.60
2004,08,15,08,07,17.70
2004,08,15,08,08,17.60
2004,08,15,08,09,17.50
2004,08,15,08,10,17.50
2004,08,15,08,11,17.50
2004,08,15,08,12,17.60
2004,08,15,08,13,17.50
2004,08,15,08,14,17.50
2004,08,15,08,15,17.50
2004,08,15,08,16,17.50
2004,08,15,08,17,17.60
2004,08,15,08,18,17.60
2004,08,15,08,19,17.70
2004,08,15,08,20,17.80
2004,08,15,08,21,17.70
2004,08,15,08,22,17.80
2004,08,15,08,23,17.80
2004,08,15,08,24,17.90
2004,08,15,08,25,17.90
2004,08,15,08,26,17.90
2004,08,15,08,27,18.00
2004,08,15,08,28,18.10
2004,08,15,08,29,18.00
2004,08,15,08,30,18.10
2004,08,15,08,31,18.20
2004,08,15,08,32,18.20
2004,08,15,08,33,18.20
2004,08,15,08,34,18.30
2004,08,15,08,35,18.30
2004,08,15,08,36,18.40
2004,08,15,08,37,18.30
2004,08,15,08,38,18.30
2004,08,15,08,39,18.40
2004,08,15,08,40,18.40
2004,08,15,08,41,18.40
2004,08,15,08,42,18.40
2004,08,15,08,43,18.40
2004,08,15,08,44,18.40
2004,08,15,08,45,18.50
2004,08,15,08,46,18.60
2004,08,15,08,47,18.60
2004,08,15,08,48,18.60
2004,08,15,08,49,18.70
2004,08,15,08,50,18.60
2004,08,15,08,51,18.60
2004,08,15,08,52,18.70
2004,08,15,08,53,18.80
2004,08,15,08,54,18.90
2004,08,15,08,55,19.00
2004,08,15,08,56,19.00
2004,08,15,08,57,19.10
2004,08,15,08,58,19.20
2004,08,15,08,59,19.20
2004,08,15,09,00,19.20
2004,08,15,09,01,19.20
2004,08,15,09,02,19.20
2004,08,15,09,03,19.30
2004,08,15,09,04,19.40
2004,08,15,09,05,19.40
2004,08,15,09,06,19.40
2004,08,15,09,07,19.30
2004,08,15,09,08,19.20
2004,08,15,09,09,19.10
2004,08,15,09,10,19.20
2004,08,15,09,11,19.30
2004,08,15,09,12,19.40
2004,08,15,09,13,19.50
2004,08,15,09,14,19.40
2004,08,15,09,15,19.60
2004,08,15,09,16,19.60
2004,08,15,09,17,19.60
2004,08,15,09,18,19.60
2004,08,15,09,19,19.60
2004,08,15,09,20,19.70
2004,08,15,09,21,19.80
2004,08,15,09,22,19.90
2004,08,15,09,23,20.00
2004,08,15,09,24,20.20
2004,08,15,09,25,20.10
2004,08,15,09,26,20.20
2004,08,15,09,27,20.10
2004,08,15,09,28,20.00
2004,08,15,09,29,20.00
2004,08,15,09,30,20.10
2004,08,15,09,31,20.10
2004,08,15,09,32,20.20
2004,08,15,09,33,20.10
2004,08,15,09,34,20.00
2004,08,15,09,35,20.20
2004,08,15,09,36,20.20
2004,08,15,09,37,20.10
2004,08,15,09,38,20.10
2004,08,15,09,39,20.10
2004,08,15,09,40,20.00
2004,08,15,09,41,20.00
2004,08,15,09,42,20.00
2004,08,15,09,43,20.10
2004,08,15,09,44,20.20
2004,08,15,09,45,20.10
2004,08,15,09,46,20.20
2004,08,15,09,47,20.10
2004,08,15,09,48,20.10
2004,08,15,09,49,20.20
2004,08,15,09,50,20.30
2004,08,15,09,51,20.40
2004,08,15,09,52,20.30
2004,08,15,09,53,20.20
2004,08,15,09,54,20.20
2004,08,15,09,55,20.20
2004,08,15,09,56,20.30
2004,08,15,09,57,20.20
2004,08,15,09,58,20.40
2004,08,15,09,59,20.00
2004,08,15,10,00,19.90
2004,08,15,10,01,19.90
2004,08,15,10,02,19.90
2004,08,15,10,03,19.90
2004,08,15,10,04,20.00
2004,08,15,10,05,19.90
2004,08,15,10,06,19.90
2004,08,15,10,07,19.90
2004,08,15,10,08,19.90
2004,08,15,10,09,20.00
2004,08,15,10,10,19.90
2004,08,15,10,11,19.90
2004,08,15,10,12,19.80
2004,08,15,10,13,19.80
2004,08,15,10,14,19.80
2004,08,15,10,15,19.90
2004,08,15,10,16,19.80
2004,08,15,10,17,19.80
2004,08,15,10,18,19.80
2004,08,15,10,19,19.70
2004,08,15,10,20,19.80
2004,08,15,10,21,19.80
2004,08,15,10,22,19.90
2004,08,15,10,23,19.80
2004,08,15,10,24,19.90
2004,08,15,10,25,19.80
2004,08,15,10,26,19.90
2004,08,15,10,27,19.90
2004,08,15,10,28,20.00
2004,08,15,10,29,20.10
2004,08,15,10,30,20.10
2004,08,15,10,31,20.10
2004,08,15,10,32,20.20
2004,08,15,10,33,20.40
2004,08,15,10,34,20.50
2004,08,15,10,35,20.60
2004,08,15,10,36,20.70
2004,08,15,10,37,20.90
2004,08,15,10,38,21.00
2004,08,15,10,39,21.20
2004,08,15,10,40,21.30
2004,08,15,10,41,21.50
2004,08,15,10,42,21.60
2004,08,15,10,43,21.60
2004,08,15,10,44,21.60
2004,08,15,10,45,21.50
2004,08,15,10,46,21.60
2004,08,15,10,47,21.60
2004,08,15,10,48,21.50
2004,08,15,10,49,21.50
2004,08,15,10,50,21.20
2004,08,15,10,51,21.00
2004,08,15,10,52,20.80
2004,08,15,10,53,20.80
2004,08,15,10,54,20.80
2004,08,15,10,55,20.80
2004,08,15,10,56,20.90
2004,08,15,10,57,20.80
2004,08,15,10,58,20.90
2004,08,15,10,59,20.80
2004,08,15,11,00,20.80
2004,08,15,11,01,20.60
2004,08,15,11,02,20.70
2004,08,15,11,03,20.60
2004,08,15,11,04,20.70
2004,08,15,11,05,20.80
2004,08,15,11,06,20.90
2004,08,15,11,07,20.80
2004,08,15,11,08,20.80
2004,08,15,11,09,20.90
2004,08,15,11,10,21.00
2004,08,15,11,11,20.90
2004,08,15,11,12,21.00
2004,08,15,11,13,21.00
2004,08,15,11,14,20.70
2004,08,15,11,15,20.80
2004,08,15,11,16,20.90
2004,08,15,11,17,20.90
2004,08,15,11,18,20.90
2004,08,15,11,19,20.80
2004,08,15,11,20,20.80
2004,08,15,11,21,20.80
2004,08,15,11,22,20.90
2004,08,15,11,23,21.10
2004,08,15,11,24,21.10
2004,08,15,11,25,21.00
2004,08,15,11,26,21.10
2004,08,15,11,27,21.10
2004,08,15,11,28,21.10
2004,08,15,11,29,21.30
2004,08,15,11,30,21.50
2004,08,15,11,31,21.50
2004,08,15,11,32,21.40
2004,08,15,11,33,21.40
2004,08,15,11,34,21.30
2004,08,15,11,35,21.30
2004,08,15,11,36,21.20
2004,08,15,11,37,21.20
2004,08,15,11,38,21.20
2004,08,15,11,39,21.30
2004,08,15,11,40,21.30
2004,08,15,11,41,21.30
2004,08,15,11,42,21.40
2004,08,15,11,43,21.40
2004,08,15,11,44,21.40
2004,08,15,11,45,21.40
2004,08,15,11,46,21.40
2004,08,15,11,47,21.30
2004,08,15,11,48,21.30
2004,08,15,11,49,21.40
2004,08,15,11,50,21.30
2004,08,15,11,51,21.30
2004,08,15,11,52,21.50
2004,08,15,11,53,21.60
2004,08,15,11,54,21.60
2004,08,15,11,55,21.60
2004,08,15,11,56,21.50
2004,08,15,11,57,21.40
2004,08,15,11,58,21.40
2004,08,15,11,59,21.50
2004,08,15,12,00,21.60
2004,08,15,12,01,21.60
2004,08,15,12,02,21.40
2004,08,15,12,03,21.30
2004,08,15,12,04,21.20
2004,08,15,12,05,21.30
2004,08,15,12,06,21.50
2004,08,15,12,07,21.70
2004,08,15,12,08,21.80
2004,08,15,12,09,21.80
2004,08,15,12,10,21.70
2004,08,15,12,11,21.60
2004,08,15,12,12,21.60
2004,08,15,12,13,21.50
2004,08,15,12,14,21.50
2004,08,15,12,15,21.50
2004,08,15,12,16,21.50
2004,08,15,12,17,21.30
2004,08,15,12,18,21.50
2004,08,15,12,19,21.70
2004,08,15,12,20,21.80
2004,08,15,12,21,21.80
2004,08,15,12,22,21.90
2004,08,15,12,23,21.90
2004,08,15,12,24,22.00
2004,08,15,12,25,22.10
2004,08,15,12,26,22.00
2004,08,15,12,27,22.20
2004,08,15,12,28,22.10
2004,08,15,12,29,22.20
2004,08,15,12,30,22.20
2004,08,15,12,31,22.30
2004,08,15,12,32,22.30
2004,08,15,12,33,22.50
2004,08,15,12,34,22.60
2004,08,15,12,35,22.80
2004,08,15,12,36,22.80
2004,08,15,12,37,22.80
2004,08,15,12,38,22.70
2004,08,15,12,39,22.90
2004,08,15,12,40,23.00
2004,08,15,12,41,22.90
2004,08,15,12,42,22.80
2004,08,15,12,43,22.90
2004,08,15,12,44,22.90
2004,08,15,12,45,22.90
2004,08,15,12,46,22.80
2004,08,15,12,47,22.80
2004,08,15,12,48,22.80
2004,08,15,12,49,22.80
2004,08,15,12,50,22.90
2004,08,15,12,51,22.90
2004,08,15,12,52,22.90
2004,08,15,12,53,22.90
2004,08,15,12,54,23.00
2004,08,15,12,55,23.10
2004,08,15,12,56,23.10
2004,08,15,12,57,23.10
2004,08,15,12,58,23.10
2004,08,15,12,59,23.10
2004,08,15,13,00,23.00
2004,08,15,13,01,22.90
2004,08,15,13,02,22.70
2004,08,15,13,03,22.60
2004,08,15,13,04,22.50
2004,08,15,13,05,22.30
2004,08,15,13,06,22.40
2004,08,15,13,07,22.40
2004,08,15,13,08,22.50
2004,08,15,13,09,22.60
2004,08,15,13,10,22.40
2004,08,15,13,11,22.50
2004,08,15,13,12,22.30
2004,08,15,13,13,22.10
2004,08,15,13,14,22.30
2004,08,15,13,15,22.30
2004,08,15,13,16,22.40
2004,08,15,13,17,22.60
2004,08,15,13,18,22.70
2004,08,15,13,19,22.60
2004,08,15,13,20,22.80
2004,08,15,13,21,22.80
2004,08,15,13,22,22.70
2004,08,15,13,23,22.70
2004,08,15,13,24,22.90
2004,08,15,13,25,22.80
2004,08,15,13,26,22.70
2004,08,15,13,27,22.70
2004,08,15,13,28,22.80
2004,08,15,13,29,23.00
2004,08,15,13,30,23.00
2004,08,15,13,31,23.00
2004,08,15,13,32,22.90
2004,08,15,13,33,23.00
2004,08,15,13,34,23.00
2004,08,15,13,35,23.10
2004,08,15,13,36,23.00
2004,08,15,13,37,23.00
2004,08,15,13,38,22.90
2004,08,15,13,39,22.80
2004,08,15,13,40,22.70
2004,08,15,13,41,22.80
2004,08,15,13,42,23.00
2004,08,15,13,43,23.00
2004,08,15,13,44,23.00
2004,08,15,13,45,23.00
2004,08,15,13,46,23.00
2004,08,15,13,47,22.90
2004,08,15,13,48,23.00
2004,08,15,13,49,23.10
2004,08,15,13,50,23.20
2004,08,15,13,51,23.30
2004,08,15,13,52,23.40
2004,08,15,13,53,23.50
2004,08,15,13,54,23.70
2004,08,15,13,55,23.70
2004,08,15,13,56,23.70
2004,08,15,13,57,23.60
2004,08,15,13,58,23.70
2004,08,15,13,59,23.80
2004,08,15,14,00,23.90
2004,08,15,14,01,24.10
2004,08,15,14,02,24.10
2004,08,15,14,03,24.20
2004,08,15,14,04,24.30
2004,08,15,14,05,24.20
2004,08,15,14,06,24.10
2004,08,15,14,07,24.10
2004,08,15,14,08,24.00
2004,08,15,14,09,24.00
2004,08,15,14,10,24.20
2004,08,15,14,11,24.20
2004,08,15,14,12,24.30
2004,08,15,14,13,24.40
2004,08,15,14,14,24.50
2004,08,15,14,15,24.60
2004,08,15,14,16,24.60
2004,08,15,14,17,24.60
2004,08,15,14,18,24.80
2004,08,15,14,19,24.80
2004,08,15,14,20,24.90
2004,08,15,14,21,25.10
2004,08,15,14,22,25.10
2004,08,15,14,23,25.20
2004,08,15,14,24,25.10
2004,08,15,14,25,24.90
2004,08,15,14,26,24.80
2004,08,15,14,27,24.90
2004,08,15,14,28,24.90
2004,08,15,14,29,25.00
2004,08,15,14,30,25.20
2004,08,15,14,31,25.10
2004,08,15,14,32,25.20
2004,08,15,14,33,25.20
2004,08,15,14,34,25.10
2004,08,15,14,35,25.10
2004,08,15,14,36,24.80
2004,08,15,14,37,24.90
2004,08,15,14,38,25.00
2004,08,15,14,39,25.20
2004,08,15,14,40,25.20
2004,08,15,14,41,25.20
2004,08,15,14,42,25.20
2004,08,15,14,43,25.30
2004,08,15,14,44,25.30
2004,08,15,14,45,25.40
2004,08,15,14,46,25.40
2004,08,15,14,47,25.30
2004,08,15,14,48,25.20
2004,08,15,14,49,25.20
2004,08,15,14,50,25.40
2004,08,15,14,51,25.40
2004,08,15,14,52,25.40
2004,08,15,14,53,25.40
2004,08,15,14,54,25.50
2004,08,15,14,55,25.50
2004,08,15,14,56,25.50
2004,08,15,14,57,25.50
2004,08,15,14,58,25.70
2004,08,15,14,59,25.80
2004,08,15,15,00,25.90
2004,08,15,15,01,26.00
2004,08,15,15,02,26.10
2004,08,15,15,03,26.20
2004,08,15,15,04,26.20
2004,08,15,15,05,26.10
2004,08,15,15,06,26.10
2004,08,15,15,07,26.30
2004,08,15,15,08,26.40
2004,08,15,15,09,26.50
2004,08,15,15,10,26.60
2004,08,15,15,11,26.50
2004,08,15,15,12,26.30
2004,08,15,15,13,26.20
2004,08,15,15,14,26.40
2004,08,15,15,15,26.30
2004,08,15,15,16,26.30
2004,08,15,15,17,26.00
2004,08,15,15,18,26.20
2004,08,15,15,19,26.40
2004,08,15,15,20,26.60
2004,08,15,15,21,26.60
2004,08,15,15,22,26.50
2004,08,15,15,23,26.50
2004,08,15,15,24,26.30
2004,08,15,15,25,26.00
2004,08,15,15,26,25.90
2004,08,15,15,27,25.90
2004,08,15,15,28,25.90
2004,08,15,15,29,25.90
2004,08,15,15,30,26.00
2004,08,15,15,31,26.40
2004,08,15,15,32,26.60
2004,08,15,15,33,26.90
2004,08,15,15,34,27.10
2004,08,15,15,35,27.20
2004,08,15,15,36,27.30
2004,08,15,15,37,27.50
2004,08,15,15,38,27.60
2004,08,15,15,39,27.70
2004,08,15,15,40,27.90
2004,08,15,15,41,28.00
2004,08,15,15,42,28.10
2004,08,15,15,43,28.10
2004,08,15,15,44,27.80
2004,08,15,15,45,27.70
2004,08,15,15,46,27.40
2004,08,15,15,47,27.30
2004,08,15,15,48,27.30
2004,08,15,15,49,27.30
2004,08,15,15,50,27.30
2004,08,15,15,51,27.30
2004,08,15,15,52,27.30
2004,08,15,15,53,27.50
2004,08,15,15,54,27.60
2004,08,15,15,55,27.70
2004,08,15,15,56,27.70
2004,08,15,15,57,27.80
2004,08,15,15,58,27.70
2004,08,15,15,59,27.90
2004,08,15,16,00,28.00
2004,08,15,16,01,28.00
2004,08,15,16,02,28.00
2004,08,15,16,03,28.10
2004,08,15,16,04,28.10
2004,08,15,16,05,28.10
2004,08,15,16,06,28.10
2004,08,15,16,07,28.20
2004,08,15,16,08,28.20
2004,08,15,16,09,28.20
2004,08,15,16,10,28.10
2004,08,15,16,11,28.20
2004,08,15,16,12,28.00
2004,08,15,16,13,27.60
2004,08,15,16,14,27.30
2004,08,15,16,15,27.20
2004,08,15,16,16,27.20
2004,08,15,16,17,27.10
2004,08,15,16,18,27.30
2004,08,15,16,19,27.40
2004,08,15,16,20,27.50
2004,08,15,16,21,27.50
2004,08,15,16,22,27.50
2004,08,15,16,23,27.70
2004,08,15,16,24,27.80
2004,08,15,16,25,28.00
2004,08,15,16,26,28.10
2004,08,15,16,27,28.10
2004,08,15,16,28,28.20
2004,08,15,16,29,28.40
2004,08,15,16,30,28.60
2004,08,15,16,31,28.80
2004,08,15,16,32,28.90
2004,08,15,16,33,29.00
2004,08,15,16,34,29.10
2004,08,15,16,35,29.00
2004,08,15,16,36,28.70
2004,08,15,16,37,28.50
2004,08,15,16,38,28.60
2004,08,15,16,39,28.70
2004,08,15,16,40,28.60
2004,08,15,16,41,28.50
2004,08,15,16,42,27.80
2004,08,15,16,43,27.00
2004,08,15,16,44,26.20
2004,08,15,16,45,25.80
2004,08,15,16,46,25.40
2004,08,15,16,47,25.20
2004,08,15,16,48,25.00
2004,08,15,16,49,24.70
2004,08,15,16,50,24.40
2004,08,15,16,51,24.20
2004,08,15,16,52,24.00
2004,08,15,16,53,23.90
2004,08,15,16,54,23.70
2004,08,15,16,55,23.70
2004,08,15,16,56,23.70
2004,08,15,16,57,23.50
2004,08,15,16,58,23.40
2004,08,15,16,59,23.30
2004,08,15,17,00,23.30
2004,08,15,17,01,23.20
2004,08,15,17,02,23.10
2004,08,15,17,03,23.00
2004,08,15,17,04,22.90
2004,08,15,17,05,22.70
2004,08,15,17,06,22.70
2004,08,15,17,07,22.70
2004,08,15,17,08,22.80
2004,08,15,17,09,22.80
2004,08,15,17,10,22.80
2004,08,15,17,11,22.90
2004,08,15,17,12,22.90
2004,08,15,17,13,22.90
2004,08,15,17,14,22.90
2004,08,15,17,15,22.90
2004,08,15,17,16,22.80
2004,08,15,17,17,22.70
2004,08,15,17,18,22.70
2004,08,15,17,19,22.50